TIME,DELAY(SENSOR),PRES,T(CTD),SAL,OXYGEN,RAWTEMP,T(OPTODE),TCPHASE,FLUOR,BETA(BETA700),BETA(BETA412),BETA(BETA440),CDOM,C(CSC),ED(ED412.40),ED(ED444.00),ED(ED489.70),ED(ED554.30),LU(LU411.80),LU(LU443.40),LU(LU489.60),LU(LU554.10),COMP,TILTX,TILTX(TILTY),CHECK
1376080376,5809,496.6400146484375000,6.6416001319885250,34.1212005615234400,81.6668472290039000,598.8615112304688000,6.6210398674011230,48.6997985839843750,53,103,86,79,77,15318,2147746459,2147423917,2148007744,2147871570,2147626724,2147072173,2148245028,2147202843,2086,3,13,59373
1376080503,5810,485.1799926757812500,6.9176001548767090,34.1137008666992200,89.8377227783203100,589.8442993164062000,6.9118461608886720,47.6335411071777340,52,102,86,78,76,15321,2147745545,2147424164,2148005037,2147873645,2147627154,2147071945,2148245138,2147201088,1408,4,13,44684
1376080632,5805,474.6400146484375000,7.1586999893188480,34.1066017150878900,99.0584564208984400,582.7387695312500000,7.1404671669006350,46.5232009887695300,50,103,86,79,77,15321,2147744969,2147425444,2148006427,2147874925,2147629467,2147072932,2148241929,2147200137,440,4,13,37832
1376080783,5809,463.6099853515625000,7.3868999481201170,34.1007995605468750,107.9753036499023400,575.6107788085938000,7.3693537712097170,45.4864311218261700,51,103,87,79,76,15320,2147745380,2147422939,2148006034,2147873362,2147626742,2147076736,2148238829,2147198418,2091,3,13,28741
1376080936,5810,451.9100036621094000,7.6290998458862305,34.0969009399414060,117.4537963867187500,567.7402954101562000,7.6215548515319820,44.4229393005371100,50,103,84,79,75,15322,2147742747,2147426212,2148006793,2147874724,2147624594,2147076132,2148236187,2147203181,1236,3,13,20104
1376081056,5809,441.5799865722656000,7.8379998207092285,34.0919990539550800,123.8100967407226600,561.4691772460938000,7.8221192359924320,43.7160606384277340,50,104,87,80,76,15319,2147741257,2147424109,2148006217,2147875044,2147621860,2147081170,2148238582,2147201298,3138,4,13,47216
1376081185,5809,430.1000061035156000,8.2132997512817380,34.0957984924316400,136.2689056396484400,549.5405273437500000,8.2027063369750980,42.3879508972168000,50,103,86,79,73,15317,2147744676,2147421833,2148006976,2147874898,2147620470,2147085549,2148232667,2147203401,193,4,13,6985
1376081312,5809,418.9299926757812500,8.4013004302978520,34.1010017395019500,143.4541015625000000,543.5775146484375000,8.3925132751464840,41.6693992614746100,50,106,83,79,75,15320,2147741833,2147426139,2148004187,2147874806,2147621376,2147090285,2148234267,2147201225,3266,3,13,24895
1376081427,5807,408.6499938964844000,8.6010999679565430,34.0943984985351560,150.8959045410156200,537.1240844726562000,8.5976085662841800,40.9440193176269500,50,103,86,79,74,15321,2147743451,2147426459,2148005211,2147875675,2147620608,2147086646,2148231040,2147203401,2447,4,13,29543
1376081556,5806,396.5499877929687500,8.8367996215820310,34.0996017456054700,160.9024047851562500,530.0581054687500000,8.8217926025390620,40.0347290039062500,50,103,86,79,72,15317,2147740690,2147426834,2148005796,2147874048,2147616612,2147085595,2148230262,2147201810,2391,3,13,45938
1376081671,5808,385.4299926757812500,9.1108999252319340,34.1150016784668000,165.1002960205078000,521.3927001953125000,9.0961971282958980,39.5674591064453100,50,104,87,80,72,15318,2147737298,2147427657,2148004681,2147871963,2147614912,2147082925,2148227154,2147206326,1880,3,13,33215
1376081788,5811,374.0499877929687500,9.2433004379272460,34.1041984558105500,171.8224945068359400,517.0364990234375000,9.2339296340942380,38.9982109069824200,49,105,88,80,72,15318,2147737581,2147424850,2148003885,2147872612,2147615990,2147088210,2148225664,2147203145,1325,4,13,53464
1376081903,5806,363.0299987792969000,9.3784999847412110,34.1058998107910160,177.5142974853515600,512.1616821289062000,9.3878927230834960,38.5099601745605500,50,103,85,80,71,15317,2147739035,2147423835,2148003977,2147872777,2147616027,2147095872,2148222336,2147203373,382,3,13,57396
1376082030,5806,352.6700134277344000,9.6471996307373050,34.1147003173828100,181.6802062988281200,504.3677978515625000,9.6336917877197270,38.0887985229492200,49,103,87,79,70,15320,2147738112,2147424566,2148006848,2147874642,2147613147,2147095670,2148224621,2147204937,2254,3,13,10750
1376082183,5805,342.3699951171875000,9.8301000595092770,34.1181983947753900,187.6949005126953000,498.1294860839844000,9.8301248550415040,37.5786590576171900,49,105,84,80,70,15318,2147735305,2147426386,2148007076,2147873554,2147613220,2147095844,2148226002,2147201234,1769,3,13,64101
1376082382,5805,330.9899902343750000,10.3442001342773440,34.1361999511718750,182.3468933105468800,480.9826049804687500,10.3686704635620120,37.6472511291503900,50,103,86,79,70,15316,2147735524,2147427099,2148007917,2147875666,2147608914,2147096118,2148225792,2147203108,823,3,14,57061
1376082545,5807,319.3200073242187500,10.8808002471923830,34.1329002380371100,182.9826965332031200,464.6820983886719000,10.8788795471191400,37.3319587707519500,49,104,87,80,70,15314,2147732992,2147427510,2148013558,2147877513,2147608484,2147098496,2148222893,2147204736,163,3,13,7401
1376082672,5812,308.6099853515625000,11.2417001724243160,34.1469993591308600,191.4795989990234400,453.5201110839844000,11.2273101806640620,36.5859413146972660,49,105,86,79,70,15314,2147729280,2147430948,2148015954,2147871972,2147608658,2147105014,2148218048,2147207817,356,3,13,8449
1376082813,5808,295.8399963378906000,11.5973997116088870,34.1607017517089840,198.0946044921875000,439.4277038574219000,11.6661996841430660,35.9387016296386700,50,104,90,80,70,15315,2147730331,2147432018,2148023881,2147873572,2147605970,2147113289,2148223753,2147206683,1896,3,13,45302
1376082914,5807,284.9400024414062500,12.1273002624511720,34.1845016479492200,200.8341064453125000,424.4981994628906000,12.1299896240234380,35.5304718017578100,48,104,87,79,69,15315,2147729526,2147435721,2148031716,2147873819,2147604361,2147114514,2148225810,2147206573,1374,3,14,41705
1376083017,5810,273.6300048828125000,12.5520000457763670,34.2145004272460940,203.1009979248047000,408.0497131347656000,12.6396799087524410,35.1329002380371100,49,101,86,80,68,15313,2147728914,2147441014,2148048804,2147873389,2147600868,2147118948,2148229321,2147205302,1364,3,13,14542
1376083146,5811,261.6000061035156000,13.3101997375488280,34.2540016174316400,204.6002044677734400,387.2088012695312500,13.2836999893188480,34.7182083129882800,48,103,89,79,67,15313,2147729325,2147448612,2148070409,2147875657,2147596809,2147129005,2148233097,2147209371,3282,3,13,4901
1376083299,5811,251.3699951171875000,13.8589000701904300,34.2919006347656250,204.9346923828125000,368.6182861328125000,13.8566904067993160,34.4122200012207000,49,105,83,79,67,15312,2147722322,2147457517,2148094537,2147873179,2147594258,2147137033,2148241481,2147208356,1848,3,13,9325
1376083467,5811,239.7500000000000000,15.1252002716064450,34.4331016540527340,209.9239044189453000,326.2804870605469000,15.1572504043579100,33.4874496459960940,49,104,87,80,66,15308,2147723264,2147473526,2148141010,2147874587,2147588928,2147154797,2148257947,2147208429,1962,3,13,9558
1376083606,5810,228.8399963378906200,16.0263996124267580,34.5539016723632800,217.7619934082031200,298.4226989746094000,16.0104503631591800,32.6473083496093750,48,106,88,79,65,15305,2147724489,2147497197,2148201856,2147872082,2147583250,2147175963,2148285284,2147220251,717,3,13,23452
1376083759,5807,216.7100067138672000,16.9193992614746100,34.6604003906250000,219.0489959716797000,269.2125854492187500,16.9036006927490230,32.1620292663574200,50,104,86,80,64,15302,2147727744,2147542473,2148295040,2147873700,2147582500,2147215232,2148324498,2147221531,3048,3,14,30709
1376083883,5811,205.7500000000000000,17.8159999847412100,34.7747001647949200,217.7371978759765600,239.6289062500000000,17.8072891235351560,31.8173007965087900,50,104,85,80,63,15300,2147737234,2147592045,2148408064,2147875136,2147585581,2147251940,2148381851,2147225728,2101,2,15,30535
1376083974,5806,197.7899932861328000,18.2873992919921880,34.8395004272460940,219.2590026855468800,221.8807983398437500,18.3492794036865230,31.4919109344482420,52,105,85,79,65,15297,2147751177,2147651419,2148531693,2147873865,2147586148,2147289910,2148434084,2147226742,1020,2,13,23386
1376084053,5807,191.1699981689453000,18.6814994812011720,34.8946990966796900,221.2845001220703000,210.9132995605468800,18.6842308044433600,31.2359790802001950,53,106,86,80,64,15295,2147766189,2147712310,2148652507,2147872905,2147589595,2147332086,2148495817,2147236443,3235,2,15,51547
1376084108,5805,186.6699981689453000,18.9405994415283200,34.9272994995117200,222.4680938720703000,201.5213928222656200,18.9710998535156250,31.0475597381591800,55,105,85,81,63,15288,2147777837,2147760512,2148751076,2147871616,2147596187,2147362523,2148542793,2147234441,2464,2,14,57047
1376084163,5809,182.1799926757812500,19.3852005004882800,34.9826011657714840,220.8710021972656200,187.6795043945312500,19.3940296173095700,30.9426994323730470,57,109,87,81,63,15282,2147794377,2147816521,2148861430,2147871643,2147599853,2147394523,2148592073,2147241417,2132,3,14,30415
1376084218,5809,177.8200073242187500,19.6872997283935550,35.0228996276855500,218.3446044921875000,177.9938049316406200,19.6900806427001950,30.9433002471923830,60,107,89,80,62,15272,2147815798,2147888466,2149000448,2147876352,2147607360,2147435035,2148653970,2147246619,2034,2,14,60317
1376084273,5810,173.4100036621093800,19.7957992553710940,35.0377006530761700,217.7704010009765600,173.9486999511718800,19.8137607574462900,30.9193096160888670,62,110,87,80,63,15281,2147847058,2147977124,2149175323,2147877065,2147618697,2147493430,2148736237,2147250788,2342,2,15,30744
1376084328,5805,169.0200042724609400,20.0303993225097660,35.0684013366699200,217.8990936279297000,166.8047027587890600,20.0322399139404300,30.8169193267822270,66,108,86,80,62,15277,2147885622,2148070994,2149355419,2147879040,2147631369,2147548251,2148814125,2147255085,2590,2,16,22166
1376084412,5808,163.1100006103515600,20.1972999572753900,35.0900001525878900,218.3498992919922000,161.5402984619140600,20.1932907104492200,30.7229900360107420,70,112,89,82,62,15272,2147941906,2148220370,2149638985,2147881444,2147656768,2147630912,2148940964,2147266889,2629,2,15,50751
1376084479,5809,159.4499969482422000,20.4712009429931640,35.1175994873046900,217.3208007812500000,153.5617980957031200,20.4374694824218750,30.6705093383789060,72,115,86,81,61,15266,2147994404,2148345088,2149867419,2147881051,2147676653,2147699373,2149044041,2147273069,2084,2,15,11338
1376084570,5809,155.5500030517578000,20.7469005584716800,35.1421012878418000,218.0440063476562500,143.2863006591797000,20.7521305084228500,30.4966506958007800,78,114,86,80,63,15261,2148068096,2148524955,2150168393,2147881042,2147707602,2147790518,2149169225,2147282358,1266,2,16,17919
1376084673,5804,151.8500061035156200,20.9265003204345700,35.1657981872558600,219.3627929687500000,137.7711029052734400,20.9211101531982420,30.3557891845703120,86,118,89,81,61,15252,2148159881,2148722742,2150513097,2147887030,2147745801,2147892763,2149308763,2147297115,1379,2,15,41881
1376084790,5811,147.8600006103515600,21.1431999206542970,35.1904983520507800,221.2581939697265600,130.8032073974609400,21.1347103118896500,30.1676292419433600,91,115,88,81,63,15248,2148295296,2148990866,2150947538,2147892059,2147797010,2148017371,2149476818,2147307721,827,2,15,19545
1376084905,5808,144.0599975585937500,21.4060993194580080,35.2075004577636700,222.2095031738281200,124.7543029785156200,21.3202304840087900,30.0406494140625000,98,118,88,81,63,15233,2148447497,2149277952,2151417472,2147896027,2147853796,2148155693,2149659638,2147323977,833,2,15,42407
1376085020,5808,139.8999938964843800,21.4888000488281250,35.2112998962402340,222.6224060058593800,119.2951965332031200,21.4877490997314450,29.9485607147216800,104,119,89,81,61,15229,2148654710,2149683373,2152076297,2147906203,2147930093,2148344822,2149916352,2147344329,920,2,15,58405
1376085123,5810,135.3399963378906200,21.7730998992919920,35.2481994628906250,225.8188934326172000,110.4115982055664000,21.7605400085449220,29.6746406555175780,110,123,90,82,61,15209,2148963684,2150262125,2152994550,2147918784,2148052333,2148603236,2150259538,2147372242,3434,2,15,11303
1376085202,5809,131.5399932861328000,21.9356994628906250,35.2639999389648440,227.4990997314453000,105.3350982666015600,21.9165306091308600,29.5270690917968750,122,122,90,82,60,15199,2149301229,2150884544,2153971501,2147930770,2148183067,2148865728,2150613421,2147405083,3177,2,16,29050
1376085293,5809,127.9400024414062500,22.1032009124755860,35.2835998535156250,230.1862030029297000,99.6932373046875000,22.0899906158447270,29.3245697021484380,127,124,90,83,61,15185,2149684306,2151576256,2155012342,2147948269,2148332891,2149145609,2150991341,2147436946,2974,1,16,31301
1376085422,5810,124.0800018310546900,22.0967006683349600,35.2825012207031250,231.2050018310547000,99.5632400512695300,22.0939903259277340,29.2744503021240230,132,127,90,81,61,15186,2150257856,2152581229,2156456566,2147974345,2148544749,2149537435,2151474121,2147480685,1978,1,15,48394
1376085573,5806,120.2799987792968800,22.1471996307373050,35.2294006347656250,229.8435058593750000,98.0232162475586000,22.1413593292236330,29.3196105957031250,138,124,88,83,60,15166,2151040100,2153892434,2158239744,2148006144,2148807926,2149989924,2152034752,2147534281,1955,1,16,36067
1376085729,5809,115.6800003051757800,22.4048995971679700,35.2589988708496100,230.6345062255859400,89.6622772216796900,22.3986606597900400,29.1750907897949220,142,122,88,82,60,15160,2152492882,2156259346,2161321718,2148062180,2149301394,2150856310,2153083885,2147637586,1849,1,15,48121
1376085820,5809,111.2799987792968800,22.6131992340087900,35.2808990478515600,233.6315002441406200,83.0880432128906200,22.6011600494384770,28.9495792388916000,134,120,87,83,61,15174,2154261741,2159020809,2164750098,2148136676,2149976091,2151986596,2154361142,2147762121,1630,2,16,43084
1376085899,5809,107.3899993896484400,22.6576995849609380,35.2713012695312500,234.8036956787109400,81.4697265625000000,22.6510295867919920,28.8744602203369140,118,119,90,83,61,15180,2151913124,2154270701,2157005915,2148011309,2149201005,2150224338,2151833133,2147539821,1851,1,16,18807
1376085978,5812,103.5199966430664000,22.7525005340576170,35.2615013122558600,234.8363952636718800,78.4518280029296900,22.7440490722656250,28.8345909118652340,116,118,90,82,60,15186,2150612260,2151679232,2153023241,2147955849,2148661120,2149010816,2150110573,2147400493,2479,1,16,27141
1376086071,5806,99.4400024414062500,22.9729995727539060,35.2715988159179700,235.2467041015625000,71.8439483642578100,22.9478702545166000,28.7322101593017580,97,120,88,83,59,15195,2162656969,2170634130,2177636004,2148521792,2153284160,2157123995,2159630948,2148289691,1864,1,16,43124
1376086126,5809,97.3300018310546900,23.0478992462158200,35.2764015197753900,236.1378021240234400,69.0487136840820300,23.0341396331787100,28.6557502746582030,96,119,89,83,60,15186,2163851693,2171969362,2178788937,2148597284,2153888137,2157952539,2160336173,2148364068,1313,2,16,19679
1376086181,5808,95.5199966430664000,23.0769996643066400,35.2766990661621100,236.5655059814453000,67.7364578247070300,23.0746498107910160,28.6196403503417970,96,121,88,83,60,15195,2165570541,2174227922,2181230354,2148702290,2154621312,2159012233,2161335058,2148466496,996,1,16,39853
1376086236,5810,93.8399963378906200,23.1436996459960940,35.2807998657226560,236.9788055419922000,65.4875411987304700,23.1440906524658200,28.5723304748535160,93,120,90,84,61,15188,2167127268,2176180580,2183247771,2148793664,2155398372,2160175076,2162448173,2148580160,578,2,15,24251
1376086291,5808,92.3600006103515600,23.2954998016357420,35.2897987365722660,237.2509002685547000,61.1380195617675800,23.2784595489501950,28.5052299499511720,90,124,90,83,58,15184,2168840109,2178406427,2185831268,2148915465,2156176502,2161366381,2163667730,2148705636,3405,1,16,20145
1376086388,5809,89.6800003051757800,23.3430995941162100,35.2943000793457000,238.6920928955078000,59.1163902282714840,23.3409500122070300,28.4143104553222660,82,121,90,84,59,15187,2171786404,2181713938,2188927085,2149110336,2157748571,2163539638,2165604077,2148902491,2581,1,16,51212
1376086443,5809,87.4199981689453100,23.3659992218017580,35.2952995300293000,239.3426055908203000,58.2988204956054700,23.3662204742431640,28.3745098114013670,81,122,93,83,61,15180,2174843620,2185317138,2192590893,2149340809,2159366272,2165741440,2167572571,2149105188,2163,2,15,61368
1376086498,5807,85.0100021362304700,23.4202995300292970,35.2960014343261700,239.6508026123047000,56.6497306823730500,23.4172096252441400,28.3400993347167970,80,121,89,84,59,15180,2178779675,2190032914,2197323565,2149642057,2161351350,2168409161,2169882166,2149347017,1671,1,15,31529
1376086553,5808,82.6100006103515600,23.5156993865966800,35.2975997924804700,239.8408050537109400,53.4114418029785160,23.5173606872558600,28.2910709381103500,80,124,93,85,58,15184,2183571136,2195782966,2203206573,2150033819,2163769325,2171648466,2172654464,2149657307,999,1,16,40136
1376086608,5806,80.4499969482421900,23.6567993164062500,35.2873992919921900,240.6260986328125000,49.2634201049804700,23.6457290649414060,28.2040691375732420,74,122,90,84,58,15173,2187118025,2199521910,2206792731,2150312758,2166040777,2174560411,2175048960,2149922276,366,1,16,62897
1376086692,5808,77.2399978637695300,23.8090000152587900,35.2839012145996100,241.9772949218750000,44.6021385192871100,23.7900695800781250,28.0858097076416000,72,123,92,85,60,15170,2193936091,2206303926,2213031186,2150955986,2170208274,2179631670,2179127844,2150362852,2949,1,16,28170
1376086747,5805,74.7399978637695300,23.9071998596191400,35.2868003845214840,243.2023925781250000,40.8853797912597660,23.9052391052246100,27.9855098724365230,71,124,91,85,59,15166,2202384868,2215626861,2222402102,2151712923,2174931684,2185535332,2184079771,2150911369,2458,1,16,35025
1376086802,5805,72.3899993896484400,23.9855003356933600,35.2826995849609400,244.2729034423828000,38.4040718078613300,23.9821605682373050,27.9075908660888670,70,125,91,86,57,15161,2208550400,2221593078,2227554761,2152317769,2179167744,2190426852,2187709696,2151314733,2401,1,16,56564
1376086857,5809,70.3499984741211000,24.0704002380371100,35.2685012817382800,245.0982055664062500,35.6778793334960940,24.0667095184326170,27.8376808166503900,69,124,91,84,58,15157,2214435520,2227102866,2232159469,2152952932,2183118116,2194695862,2190690980,2151696429,2906,1,16,60597
1376086912,5809,68.6699981689453100,24.1441001892089840,35.2644004821777340,246.1352996826172000,33.2283287048339840,24.1427192687988280,27.7623996734619140,71,125,92,87,57,15159,2221912082,2235025161,2240092288,2153633133,2187358701,2199371026,2194035922,2152090889,3051,1,16,39957
1376086996,5810,65.8300018310546900,24.3178997039794920,35.2607002258300800,247.9472961425781200,27.8358306884765620,24.3101406097412100,27.6176490783691400,68,129,92,86,55,15133,2235239515,2247656429,2251183222,2155081563,2197168356,2210210852,2202266596,2153105417,2959,1,16,32509
1376087051,5809,63.6100006103515600,24.3971996307373050,35.2462005615234400,248.9528961181640600,25.1775894165039060,24.3927192687988280,27.5417804718017580,69,127,91,87,58,15126,2246692617,2258661046,2260965933,2156448164,2206158317,2219882358,2209276233,2153915090,3241,1,16,64047
1376087106,5811,61.5200004577636700,24.6250000000000000,35.2458992004394500,249.2232971191406200,18.1618595123291000,24.6108608245849600,27.4444293975830080,64,129,91,86,56,15129,2187896539,2188517275,2185907638,2150559881,2172951817,2176030875,2170318290,2149609234,3210,1,16,32828
1376087161,5810,59.6699981689453100,24.8211994171142580,35.2448997497558600,250.0923004150390600,12.9565200805664060,24.7728900909423830,27.3436908721923830,69,130,94,86,59,15125,2269486281,2280802706,2281857801,2159626587,2223072868,2237661650,2222212809,2155664576,2986,1,16,12972
1376087216,5808,58.2400016784668000,24.8441009521484380,35.2470016479492200,250.6448059082031200,10.8306398391723630,24.8390998840332030,27.2944507598876950,63,130,93,87,55,15130,2273428507,2283503725,2283526034,2160333165,2228144502,2242547328,2225360484,2156081188,3078,1,16,33977
1376087300,5808,55.7000007629394500,24.9379997253417970,35.2406997680664060,251.1264953613281200,7.9108901023864750,24.9300804138183600,27.2385597229003900,63,132,92,85,56,15127,2286704859,2296173952,2295143113,2162832758,2239160758,2252785188,2232009289,2157205632,634,2,16,40457
1376087355,5804,53.5800018310546900,25.0167007446289060,35.2440986633300800,251.7344055175781200,5.1856760978698730,25.0150508880615230,27.1798095703125000,61,130,91,86,54,15120,2297859986,2305234029,2302107428,2164606610,2250894372,2263797906,2238942683,2158079442,848,1,16,16110
1376087410,5809,51.5200004577636700,25.2056999206542970,35.2477989196777340,251.0563049316406200,-0.6549953818321228,25.1972904205322270,27.1373195648193360,61,130,91,87,56,15130,2305857956,2310984512,2306702226,2166650496,2260471762,2272439872,2244604004,2159069549,305,1,16,14144
1376087465,5805,49.6899986267089840,25.4122009277343750,35.2569007873535160,249.8634948730468800,-7.9001688957214355,25.4236297607421880,27.0996608734130860,59,129,94,87,55,15127,2322646930,2327499117,2323275648,2170350080,2271648594,2283127725,2251766217,2160244580,2812,1,16,61996
1376087520,5806,48.2500000000000000,25.5942993164062500,35.2476997375488300,249.3995971679687500,-12.7954196929931640,25.5767402648925780,27.0599193572998050,57,131,93,86,59,15128,2244501440,2241267757,2233896128,2158635712,2221988269,2224419017,2203854491,2153927478,2138,1,16,30857
1376087604,5809,46.2299995422363300,26.0820007324218750,35.2378997802734400,246.6365051269531200,-28.4705696105957030,26.0680408477783200,26.9873695373535160,57,132,95,88,54,15113,2344379227,2346316470,2339716617,2175570742,2298002450,2306340187,2266531858,2162614262,1958,1,16,35691
1376087695,5811,44.7099990844726560,26.2891006469726560,35.2521018981933600,244.8603057861328000,-35.2148590087890600,26.2799205780029300,26.9817905426025400,57,134,94,86,57,15116,2363256676,2366864749,2361519305,2181257965,2316192438,2324095533,2279054180,2164901449,1164,1,16,26213
1376087970,5804,41.9700012207031250,27.1571006774902340,35.3166999816894500,236.2940063476562500,-59.2279090881347660,27.0368900299072270,27.0651206970214840,56,129,93,86,53,15128,2380648219,2382166052,2375351817,2187941531,2347143570,2349601380,2292358537,2167301586,897,1,16,61677
1376088258,5811,39.8100013732910160,27.2038002014160160,35.3320999145507800,229.4389038085937500,-64.7901611328125000,27.2128295898437500,27.3076591491699220,54,125,93,87,56,15120,2391099757,2391543945,2384274614,2193551853,2379813257,2375244443,2307726683,2169742336,1185,1,16,55867
1376088313,5808,37.2700004577636700,27.2080993652343750,35.3330001831054700,228.8123016357422000,-64.9969863891601600,27.2193698883056640,27.3339195251464840,55,129,92,85,53,15130,2406463853,2407055835,2400981522,2202270509,2407115977,2398522377,2322065252,2172370048,832,0,17,51521
1376088368,5808,34.4199981689453100,27.2136001586914060,35.3333015441894500,228.5655059814453000,-65.1841430664062500,27.2252998352050780,27.3429908752441400,54,125,93,85,56,15133,2428967451,2429752877,2425363072,2216218386,2438533330,2426108233,2340321828,2177544338,617,1,16,57328
1376088423,5804,31.4899997711181640,27.2155990600585940,35.3344001770019500,228.4745941162109400,-65.3023529052734400,27.2290401458740230,27.3457603454589840,53,126,89,85,57,15136,2446837686,2447893787,2445912484,2229950802,2476246006,2458831350,2361389632,2182047131,422,1,16,11619
1376088478,5807,28.6000003814697270,27.2205009460449220,35.3344001770019500,228.4676971435547000,-65.5770416259765600,27.2377300262451170,27.3426399230957030,53,124,92,85,51,15136,2471312356,2472134436,2471324342,2247213019,2511961490,2489398400,2380905252,2187302701,195,0,16,6733